パンスターズ彗星

C/2017 Y2 ( PanSTARRS )

English version
Home page
Updated on December 31, 2017

---------------------------------------------------------------------

・ プロフィール

発見日 2017年12月24日
発見光度 22.1等
発見者 Pan-STARRS 1 telescope (Haleakala)

・ 軌道要素

T 2020 Sept. 2.93440 TT                                 MPCW
q   4.0472719            (2000.0)            P               Q
                   Peri.  149.68820     -0.16750847     -0.68564344
                   Node    60.61625     -0.98567008     +0.10198025
e   1.0            Incl.  125.61077     +0.01988488     -0.72075870
From 8 observations 2017 Dec. 24-26.

・ 光度変化

        m1 = 8.0 + 5 logΔ + 10.0 log r

---------------------------------------------------------------------

軌道要素はM.P.E.C. 2017-Y160に掲載されたものです。
光度グラフはComet for Windowsで作成したものです。

---------------------------------------------------------------------

Copyright(C) Seiichi Yoshida (comet@aerith.net). All rights reserved.